{"data":{"norad_id":66506,"intl_designator":"2025-263X","name":"STARLINK-34765","alt_names":[],"object_type":"PAYLOAD","status":"ACTIVE","operator":null,"country":"US","launch_date":"2025-11-15","launch_site_code":"AFETR","launch_vehicle":null,"mission":null,"orbit_class":"UNKNOWN","rcs_meters":null,"size_class":null,"mass_kg":null,"dimensions":null,"purposes":["comms"],"wikipedia_slug":null,"has_3d_model":false,"image_url":null,"decayed_at":null,"tle_current":{"epoch":"2026-09-20T21:35:19.450752Z","epoch_age_seconds":55155,"freshness":"FRESH","line1":"1 66506U 25263X   26263.89953068  .00009036  00000+0  33747-3 0  9992","line2":"2 66506  43.0015 328.2576 0001562 265.3789  94.6885 15.27581442 48758","mean_motion":15.27581442,"eccentricity":0.0001562,"inclination_deg":43.0015,"raan_deg":328.2576,"arg_perigee_deg":265.3789,"mean_anomaly_deg":94.6885,"bstar":0.00033747,"rev_number":4875,"period_min":94.266659728117,"perigee_km":481.97306158254,"apogee_km":484.11649477004,"semimajor_km":6861.1817781763,"source":"CELESTRAK","updated_at":"2026-09-21T09:00:35.923573Z"}}}